Location: Coupvray
(48.8929°N, 2.7967°E)
Time: 10:06:40
(UTC+00:00)

UNK - Pass Details

Date: 14 July 2020
Orbit: 667 x 685 km, 98.1° (Epoch: 05 August)

Event Time Altitude Azimuth Distance (km) Brightness Sun altitude
Exits shadow 01:33:05 24° 173° (S) 1,399 4.9 -16.1°
Maximum altitude 01:35:53 77° 256° (WSW) 699 3.7 -16.0°
Drops below altitude 10° 01:40:33 10° 343° (NNW) 2,129 7.0 -15.6°
Sets 01:42:49 0° 345° (NNW) 3,051 7.9 -15.5°
